sat.trackr.live / text

‹ back to catalog

STARLINK-30313

NORAD 57676 · 2023-124P

PAYLOAD ACTIVE UNKNOWN

§ Identity

Operator
Country
US
Launch date
2023-08-22
Launch site
AFWTR
Launch vehicle
Mass (kg)
RCS (m²)

Purposes: comms

External: N2YO · Heavens-Above · Gunter

§ Orbital elements

Epoch: 2026-05-25T05:20:43.940256Z

Period
94.11 min
Inclination
53.1597°
Eccentricity
0.0000959
Mean motion
15.30194460 rev/d
Perigee alt
474.6 km
Apogee alt
475.9 km
Semi-major
6,853.4 km
B*
3.6823e-5
RAAN
211.4950°
Arg perigee
91.5171°
Mean anomaly
268.5940°
Rev number
15,528

§ Raw data

STARLINK-303131 57676U 23124P   26145.22273079  .00000732  00000+0  36823-4 0  99902 57676  53.1597 211.4950 0000959  91.5171 268.5940 15.30194460155280

JSON: /api/v1/satellites/57676 · /tle

For live sub-satellite position, see the globe view (requires WebGL).

§ Visibility from observer

Set your observer location to see the next 7 days of passes ≥ 10°. The values pass through the URL so the page stays shareable.

No JS? Fill the form by hand. The geolocation button needs JavaScript.